User: anonymous
Location: Unspecified
(0.0000°N, 0.0000°E)
Time: 23:05:03
(UTC+02:00)
Language:

Palapa 6 Rocket - Orbit

View from above orbital plane
View from above orbital plane
View from above satellite
View from above satellite

Ground track
Ground track

The orbit data is extracted from the following two-line orbital elements,

1 20571U 90034B   14243.82049369  .00001689  00000-0  21161-3 0  5136
2 20571 022.7454 148.8220 0517831 126.5116 284.8381 14.09649384247749
Epoch (UTC): 31 August 2014 19:41:30
Eccentricity: 0.0517831
inclination: 22.7454°
perigee height: 486 km
apogee height: 1235 km
right ascension of ascending node: 148.8220°
argument of perigee: 126.5116°
revolutions per day: 14.09649384
mean anomaly at epoch: 284.8381°
orbit number at epoch: 24774

The dashed part of the orbit path shows where the satellite is in the earth's shadow,  

DLR